Red Oak, IA

6:44 AM CDT on April 23, 2017 (GMT -0500)
Red Oak Municipal

Weather History for KRDK - January, 2014

Change the Weather History Date:

Thursday, January 23, 2014

  Actual Average Record
Temperature  
Mean Temperature 4 °F -  
Max Temperature 14 °F 37 °F 63 °F (1981)
Min Temperature -5 °F 16 °F -19 °F (1963)
Degree Days  
Heating Degree Days 60    
Moisture  
Dew Point -9 °F    
Average Humidity 61    
Maximum Humidity 77    
Minimum Humidity 38    
Precipitation  
Precipitation 0.00 in - - ()
Sea Level Pressure  
Sea Level Pressure 30.70 in    
Wind  
Wind Speed 11 mph (NW)    
Max Wind Speed 17 mph    
Max Gust Speed 23 mph    
Visibility 10 miles    
Events      
Averages and records for this station are not official NWS values.
T = Trace of Precipitation, MM = Missing Value Source: NWS Daily Summary

Daily Weather History Graph

Daily Weather History Graph

Search for Another Location

Airport or City:

Trip Planner

Search our weather history database for the weather conditions in past years. The results will help you decide how hot, cold, wet, or windy it might be!

Date:

Astronomy

Jan. 23, 2014 Rise Set
Actual Time 7:39 AM CST 5:27 PM CST
Civil Twilight 7:09 AM CST 5:56 PM CST
Nautical Twilight 6:36 AM CST 6:30 PM CST
Astronomical Twilight 6:03 AM CST 7:02 PM CST
Moon 12:02 AM CST 11:11 AM CST
Length of Visible Light 10h 47m
Length of Day
9h 47m
Waning Gibbous, 55% of the Moon is Illuminated
Jan 23
Waning Gibbous
Jan 23
Last Quarter
Jan 30
New
Feb 6
First Quarter
Feb 14
Full

Hourly Weather History & Observations

Time (CST) Temp. Windchill Dew Point Humidity Pressure Visibility Wind Dir Wind Speed Gust Speed Precip Events Conditions
12:15 AM -0.4 °F -20.5 °F -11.2 °F 60% 30.58 in 10.0 mi North 16.1 mph 23.0 mph N/A   Clear
12:35 AM -0.4 °F -18.4 °F -11.2 °F 60% 30.59 in 10.0 mi NNW 12.7 mph - N/A   Clear
12:55 AM -0.4 °F -18.4 °F -11.2 °F 60% 30.60 in 10.0 mi NNW 12.7 mph 21.9 mph N/A   Clear
1:15 AM -2.2 °F -21.5 °F -11.2 °F 66% 30.60 in 10.0 mi NNW 13.8 mph - N/A   Clear
1:35 AM -2.2 °F -22.2 °F -11.2 °F 66% 30.60 in 10.0 mi NNW 15.0 mph 21.9 mph N/A   Partly Cloudy
1:55 AM -2.2 °F -16.8 °F -11.2 °F 66% 30.62 in 10.0 mi North 8.1 mph 18.4 mph N/A   Partly Cloudy
2:15 AM -2.2 °F -18.9 °F -11.2 °F 66% 30.63 in 10.0 mi NNW 10.4 mph - N/A   Clear
2:35 AM -2.2 °F -20.7 °F -11.2 °F 66% 30.63 in 10.0 mi North 12.7 mph - N/A   Clear
2:55 AM -4.0 °F -20.2 °F -13.0 °F 65% 30.64 in 10.0 mi NNW 9.2 mph 16.1 mph N/A   Clear
3:15 AM -4.0 °F -20.2 °F -11.2 °F 71% 30.65 in 10.0 mi NNW 9.2 mph 16.1 mph N/A   Clear
3:35 AM -4.0 °F -19.0 °F -11.2 °F 71% 30.65 in 10.0 mi NNW 8.1 mph - N/A   Clear
3:55 AM -4.0 °F -19.0 °F -11.2 °F 71% 30.66 in 10.0 mi NNW 8.1 mph - N/A   Clear
4:15 AM -4.0 °F -21.2 °F -11.2 °F 71% 30.66 in 10.0 mi NNW 10.4 mph - N/A   Clear
4:35 AM -4.0 °F -21.2 °F -11.2 °F 71% 30.67 in 10.0 mi NNW 10.4 mph - N/A   Clear
4:55 AM -4.0 °F -23.0 °F -11.2 °F 71% 30.69 in 10.0 mi NW 12.7 mph - N/A   Clear
5:15 AM -4.0 °F -23.7 °F -11.2 °F 71% 30.70 in 10.0 mi NW 13.8 mph - N/A   Clear
5:35 AM -4.0 °F -23.0 °F -11.2 °F 71% 30.70 in 10.0 mi NW 12.7 mph - N/A   Clear
5:55 AM -5.8 °F -24.4 °F -11.2 °F 77% 30.71 in 10.0 mi NNW 11.5 mph 19.6 mph N/A   Clear
6:15 AM -5.8 °F -22.4 °F -11.2 °F 77% 30.73 in 10.0 mi NNW 9.2 mph 17.3 mph N/A   Clear
6:35 AM -5.8 °F -19.9 °F -11.2 °F 77% 30.74 in 10.0 mi NNW 6.9 mph - N/A   Clear
6:55 AM -5.8 °F -22.4 °F -11.2 °F 77% 30.74 in 10.0 mi NNW 9.2 mph - N/A   Clear
7:15 AM -5.8 °F -26.0 °F -13.0 °F 71% 30.75 in 10.0 mi NW 13.8 mph - N/A   Clear
7:35 AM -5.8 °F -25.2 °F -13.0 °F 71% 30.76 in 10.0 mi NW 12.7 mph - N/A   Clear
7:55 AM -5.8 °F -25.2 °F -13.0 °F 71% 30.76 in 10.0 mi NNW 12.7 mph - N/A   Clear
8:15 AM -5.8 °F -24.4 °F -11.2 °F 77% 30.77 in 10.0 mi NNW 11.5 mph 18.4 mph N/A   Clear
8:35 AM -4.0 °F -23.0 °F -11.2 °F 71% 30.78 in 10.0 mi NNW 12.7 mph 19.6 mph N/A   Clear
8:55 AM -4.0 °F -23.7 °F -11.2 °F 71% 30.79 in 10.0 mi NNW 13.8 mph 19.6 mph N/A   Clear
9:15 AM -2.2 °F -23.5 °F -11.2 °F 66% 30.79 in 10.0 mi NNW 17.3 mph - N/A   Clear
9:35 AM -2.2 °F -22.9 °F -11.2 °F 66% 30.80 in 10.0 mi NW 16.1 mph 23.0 mph N/A   Clear
9:55 AM -0.4 °F -18.4 °F -9.4 °F 66% 30.81 in 10.0 mi NNW 12.7 mph 20.7 mph N/A   Partly Cloudy
10:15 AM -0.4 °F -18.4 °F -9.4 °F 66% 30.81 in 10.0 mi NNW 12.7 mph 19.6 mph N/A   Clear
10:35 AM 1.4 °F -17.6 °F -9.4 °F 61% 30.82 in 10.0 mi NNW 15.0 mph - N/A   Clear
10:55 AM 3.2 °F -13.9 °F -7.6 °F 61% 30.81 in 10.0 mi NW 12.7 mph 18.4 mph N/A   Clear
11:15 AM 3.2 °F -13.1 °F -7.6 °F 61% 30.82 in 10.0 mi NNW 11.5 mph - N/A   Clear
11:35 AM 5.0 °F -13.6 °F -7.6 °F 56% 30.81 in 10.0 mi NW 16.1 mph - N/A   Clear
11:55 AM 5.0 °F -10.8 °F -7.6 °F 56% 30.81 in 10.0 mi NW 11.5 mph - N/A   Clear
12:15 PM 6.8 °F -8.6 °F -7.6 °F 52% 30.80 in 10.0 mi NW 11.5 mph 18.4 mph N/A   Clear
12:35 PM 8.6 °F -6.3 °F -7.6 °F 48% 30.78 in 10.0 mi NW 11.5 mph - N/A   Clear
12:55 PM 8.6 °F -3.7 °F -7.6 °F 48% 30.77 in 10.0 mi NW 8.1 mph 18.4 mph N/A   Clear
1:15 PM 8.6 °F -7.7 °F -7.6 °F 48% 30.76 in 10.0 mi WNW 13.8 mph - N/A   Clear
1:35 PM 10.4 °F -4.1 °F -5.8 °F 48% 30.76 in 10.0 mi NNW 11.5 mph 19.6 mph N/A   Clear
1:55 PM 12.2 °F -3.1 °F -5.8 °F 45% 30.74 in 10.0 mi NW 13.8 mph - N/A   Clear
2:15 PM 12.2 °F -1.0 °F -5.8 °F 45% 30.74 in 10.0 mi NW 10.4 mph 16.1 mph N/A   Clear
2:35 PM 12.2 °F -2.5 °F -7.6 °F 41% 30.74 in 10.0 mi WNW 12.7 mph - N/A   Clear
2:55 PM 12.2 °F -1.0 °F -7.6 °F 41% 30.74 in 10.0 mi WNW 10.4 mph - N/A   Clear
3:15 PM 14.0 °F 3.9 °F -7.6 °F 38% 30.74 in 10.0 mi WNW 6.9 mph 15.0 mph N/A   Clear
3:35 PM 14.0 °F 2.0 °F -7.6 °F 38% 30.73 in 10.0 mi NNW 9.2 mph 18.4 mph N/A   Clear
3:55 PM 14.0 °F 1.2 °F -7.6 °F 38% 30.73 in 10.0 mi WNW 10.4 mph - N/A   Clear
4:15 PM 12.2 °F 0.7 °F -7.6 °F 41% 30.73 in 10.0 mi WNW 8.1 mph 15.0 mph N/A   Clear
4:35 PM 12.2 °F 0.7 °F -7.6 °F 41% 30.72 in 10.0 mi WNW 8.1 mph - N/A   Clear
4:55 PM 12.2 °F 2.9 °F -7.6 °F 41% 30.72 in - WNW 5.8 mph - N/A   Clear
5:15 PM 10.4 °F 2.2 °F -7.6 °F 44% 30.72 in 10.0 mi West 4.6 mph - N/A   Partly Cloudy
5:35 PM 6.8 °F -2.0 °F -9.4 °F 48% 30.71 in 10.0 mi West 4.6 mph - N/A   Partly Cloudy
5:55 PM 5.0 °F -4.1 °F -9.4 °F 52% 30.70 in 10.0 mi West 4.6 mph - N/A   Partly Cloudy
6:15 PM 1.4 °F -8.3 °F -9.4 °F 61% 30.70 in 10.0 mi South 4.6 mph - N/A   Clear
6:35 PM 3.2 °F -6.2 °F -9.4 °F 56% 30.69 in 8.0 mi SW 4.6 mph - N/A   Clear
6:55 PM 3.2 °F -4.2 °F -9.4 °F 56% 30.69 in 9.0 mi South 3.5 mph - N/A   Clear
7:15 PM 3.2 °F -7.8 °F -9.4 °F 56% 30.68 in 10.0 mi South 5.8 mph - N/A   Clear
7:35 PM 3.2 °F -6.2 °F -9.4 °F 56% 30.68 in 10.0 mi SSW 4.6 mph - N/A   Clear
7:55 PM 1.4 °F -8.3 °F -9.4 °F 61% 30.66 in 10.0 mi South 4.6 mph - N/A   Clear
8:35 PM 1.4 °F -8.3 °F -9.4 °F 61% 30.65 in 10.0 mi SSW 4.6 mph - N/A   Clear
8:55 PM -0.4 °F -13.4 °F -9.4 °F 66% 30.63 in 10.0 mi SSW 6.9 mph - N/A   Clear
9:15 PM 1.4 °F -9.9 °F -7.6 °F 66% 30.62 in 10.0 mi SSW 5.8 mph - N/A   Clear
9:55 PM 1.4 °F -13.5 °F -7.6 °F 66% 30.59 in 10.0 mi South 9.2 mph - N/A   Clear
10:15 PM 1.4 °F -13.5 °F -7.6 °F 66% 30.57 in 10.0 mi SSW 9.2 mph - N/A   Clear
10:35 PM 1.4 °F -13.5 °F -7.6 °F 66% 30.55 in 10.0 mi SSW 9.2 mph - N/A   Clear
10:55 PM 3.2 °F -12.2 °F -7.6 °F 61% 30.54 in 10.0 mi South 10.4 mph - N/A   Clear
11:15 PM 3.2 °F -13.1 °F -5.8 °F 66% 30.52 in 10.0 mi South 11.5 mph - N/A   Clear
11:35 PM 3.2 °F -10.3 °F -5.8 °F 66% 30.52 in 10.0 mi South 8.1 mph - N/A   Clear
11:55 PM 3.2 °F -12.2 °F -5.8 °F 66% 30.50 in 10.0 mi South 10.4 mph - N/A   Clear